Regional Weather Roundup
Issued by NWS Wakefield, VA

Home | Current Version | Previous Version | Text Only | Print | Product List | Glossary On
Versions: 1 2 3 4 5 6 7 8 9 10 11 12 13 14 15 16 17 18 19 20 21 22 23 24 25 26 27 28 29 30 31 32 33 34 35 36 37 38 39 40 41 42 43 44 45 46 47 48 49 50
000
ASUS41 KAKQ 212010
RWRAKQ

REGIONAL WEATHER ROUNDUP
NATIONAL WEATHER SERVICE WAKEFIELD VA
400 PM EDT SUN SEP 21 2014

Note: "fair" indicates few or no clouds below 12,000 feet with no
significant weather and/or obstructions to visibility. * = Denotes
station may not report precipitation (e.g., rain,snow,etc.),
thunder or fog.

VAZ042-051-052>054-056-212100-
NORTHERN VIRGINIA

CITY           SKY/WX    TMP DP  RH WIND       PRES   REMARKS
WASH NATIONAL  PTSUNNY   85  63  47 S12       29.68F
DULLES         MOSUNNY   83  62  49 S9        29.67F
FORT BELVOIR   SUNNY     83  61  47 SE7       29.68F
QUANTICO       SUNNY     81  62  52 S7        29.69F
FREDERICKSBRG* SUNNY     88  58  35 SW9       29.68F
STAFFORD*      SUNNY     85  59  40 CALM      29.73F
WARRENTON      SUNNY     89  67  48 S7        29.68F
CULPEPER*      MOSUNNY   90  57  33 SW8       29.68F
MANASSAS*      SUNNY     84  64  51 S12       29.68
LEESBURG*      SUNNY     86  64  48 S7        29.68F
WINCHESTER     CLOUDY    86  59  39 SW8       29.67F
FRONT ROYAL*   MOCLDY    84  63  48 S6        29.66F
LURAY*         MOCLDY    86  61  42 S9        29.69S
$$

VAZ048-049-060>072-079>083-212100-
CENTRAL AND SOUTH CENTRAL VIRGINIA...AND NORTH CENTRAL NORTH CAROLINA

CITY           SKY/WX    TMP DP  RH WIND       PRES   REMARKS
RICHMOND       MOSUNNY   90  56  31 NW14      29.71F
CHESTERFIELD*  CLEAR     88  57  35 W12       29.74S
PETERSBURG*    SUNNY     85  59  42 SW8       29.74S
HANOVER        SUNNY     87  61  41 W8        29.72F
TAPPAHANNOCK*  SUNNY     85  53  32 CALM      29.72S
CHARLOTTSVILLE SUNNY     87  61  41 SW12      29.69F
ORANGE*        SUNNY     88  59  37 S9        29.70F
LOUISA*        SUNNY     88  63  42 S6        29.69F
FARMVILLE*     MOSUNNY   88  59  37 SW7       29.71F
CREWE*         PTCLDY    85  64  49 SW5       29.74S
FORT PICKETT*  PTCLDY    85  65  51 W10       29.74S
LUNENBURG*     PTCLDY    84  67  55 SW5       29.75F
SOUTH HILL*    SUNNY     86  66  51 SW9       29.81S
LAWRENCEVILLE* CLEAR     84  66  55 W5        29.75S
ROANOKE RAPIDS CLEAR     82  63  51 W7        29.76S
RALEIGH        MOSUNNY   86  62  44 SW7       29.79F
$$

VAZ088>098-212100-
SOUTHEAST VIRGINIA

CITY           SKY/WX    TMP DP  RH WIND       PRES   REMARKS
NORFOLK        MOSUNNY   80  66  62 SW8       29.72F
VIRGINIA BEACH PTSUNNY   80  68  66 NW7       29.72S
NORFOLK NAVAL  PTSUNNY   80  66  62 VRB3      29.73F
WEST POINT*    SUNNY     85  55  35 CALM      29.72S
NEWPORT NEWS   MOSUNNY   86  62  44 W6        29.72F
LANGLEY AFB    MOSUNNY   82  67  60 W3        29.70F
FORT EUSTIS    MOSUNNY   82  55  40 W6        29.71S
WILLIAMSBURG*  SUNNY     88  63  42 NW8       29.73S
HR EXEC AP*    PTCLDY    81  64  57 CALM      29.74F
FRANKLIN*      SUNNY     82  59  44 W6        29.74S
WAKEFIELD      SUNNY     84  61  45 W7        29.73F
$$

VAZ020-022-025-037-045-212100-
WEST CENTRAL AND SOUTHWEST VIRGINIA

CITY           SKY/WX    TMP DP  RH WIND       PRES   REMARKS
STAUNTON*      MOSUNNY   85  57  38 SW13      29.74S
HOT SPRINGS VA CLOUDY    66  50  55 W15       29.91F
LYNCHBURG      MOSUNNY   81  64  56 SW10      29.78F
DANVILLE       MOSUNNY   85  65  51 SW13      29.79F
SOUTH BOSTON*  NOT AVBL
MARTINSVILLE   CLOUDY    82  62  50 NW10G17   29.84S
ROANOKE        PTSUNNY   82  62  50 W13G22    29.81F
BLACKSBURG     MOSUNNY   77  66  69 W8        29.88F
DUBLIN*        PTSUNNY   76  65  67 W12       29.89F
MARION*        CLOUDY    73  65  75 W14G20    29.94S
HILLSVILLE*    CLOUDY    72  62  70 W9G18     29.92F
RICHLANDS*     CLOUDY    72  65  81 SW7G18    29.93F
WISE*          RAIN      68  63  83 SW12      29.95F
ABINGDON*      CLOUDY    73  67  82 W8        29.93F
$$

MDZ021>025-VAZ099-100-212100-
SOUTHERN MARYLAND AND THE DELMARVA PENINSULA

CITY           SKY/WX    TMP DP  RH WIND       PRES   REMARKS
PATUXENT RIVER PTSUNNY   80  59  48 VRB3      29.69F
BAY BRIDGE APT   N/A     79  57  47 S3        29.68F
LEONARDTOWN    MOSUNNY   81  57  44 CALM      29.71F
DOVER          PTSUNNY   74  68  81 NE6       29.67F
GEORGETOWN     PTSUNNY   79  66  64 VRB7      29.69F
EASTON         PTSUNNY   81  63  54 CALM      29.72F
CAMBRIDGE      MOSUNNY   79  61  53 CALM      29.68F
SALISBURY      PTSUNNY   82  66  58 NW6       29.68F
OCEAN CITY     CLOUDY    76  68  76 N6        29.68F
WALLOPS ISLAND CLOUDY    79  69  71 N7        29.69F
ACCOMACK*      MOSUNNY   77  66  69 NW7       29.71S
$$

NCZ012>017-030>032-212100-
EASTERN NORTH CAROLINA

CITY           SKY/WX    TMP DP  RH WIND       PRES   REMARKS
ELIZABETH CITY PTSUNNY   79  67  66 W9        29.74S
AHOSKIE*       SUNNY     81  64  55 NW5       29.76S
EDENTON*       PTSUNNY   80  64  58 W6        29.76S
CURRITUCK*     PTSUNNY   80  63  55 NW8       29.74S
KILL DEVIL HLS PTSUNNY   76  69  78 NW6       29.73S
MANTEO         PTSUNNY   77  70  77 W8        29.75S
CAPE HATTERAS  PTSUNNY   76  70  82 NW14G21   29.76R
TARBORO*       PTCLDY    86  63  46 W8        29.78S
GOLDSBORO      MOSUNNY   85  66  53 W7        29.79S
WASHINGTON     SUNNY     81  64  55 NW6       29.78S
GREENVILLE     MOSUNNY   82  64  54 W7        29.81S
NEW BERN       MOSUNNY   85  64  49 W5        29.80F
WILMINGTON     MOSUNNY   85  61  44 W12       29.83S
$$

VAZ048-212100-
ELSEWHERE

CITY           SKY/WX    TMP DP  RH WIND       PRES   REMARKS
HARRISBURG PA  PTSUNNY   84  61  45 SW9       29.63F
BALTIMORE      PTSUNNY   82  63  52 S6        29.67F
ANNAPOLIS      MOSUNNY   74  66  76 SE9       29.68F
ANDREWS AFB    SUNNY     84  60  44 SW7       29.68F
WILMINGTON DE  PTSUNNY   79  63  57 SE7       29.68F
PHILADELPHIA   PTSUNNY   77  65  66 SE5       29.68F
WILDWOOD NJ*   CLOUDY    75  66  73 N7        29.68F
ATLANTIC CITY  CLOUDY    74  69  85 N5        29.68F
HENDERSON NC   SUNNY     84  60  44 W8        29.79S
GREENSBORO     PTSUNNY   84  63  49 W15       29.82S
ROCKY MOUNT    MOSUNNY   85  64  49 SW9       29.79S
FAYETTEVILLE   MOSUNNY   88  62  41 SW9       29.81F
CHARLOTTE      MOSUNNY   85  62  46 SW8       29.87F
$$

VAZ100-212100-
MARINE

STATION/POSITION TIME  TEMP    WIND        PRES    WAVE   SWELL
                       AIR SEA DIR/SP/G            HT/PER HT/PER
                 (UTC) (F)     (DEG/KT/KT) (MB)    (FT/S) (FT/S)
44066 TX TWR #4  2000   71 71   70/ 12/ 14 1003.6F   4/ 8   3/ 8
CAPE MAY NJ      2000   74 76  350/  6/  9 1004.7F
LEWES DE         2000   71 72  350/  7/  8 1005.0F
15NM E FENWICK I 2000   71 72              1004.4F   4/ 8
OCEAN-CITY-INLET 2000   74 72   20/  9/ 11 1004.6F
WACHAPREAGUE VA  2000   77 74  320/  4/  9 1005.7S
THOMAS POINT MD  2000   74 74  150/  7/  8 1006.1F
GOOSES REEF MD   2000   74     110/  4/  6 1006.3S
COVE POINT MD    2000   74      30/  3/  3 1005.6F
SOLOMONS ISLAND  2000      77                N/A
BISHOPS HEAD MD  2000   74 74  270/  5/  6 1005.1F
PINEY POINT MD   2000          180/  2/  3   N/A
POTOMAC MD       2000   75      70/  2/  4 1005.3S
CAMBRIDGE MD     2000   77 74   70/  2/  3 1005.1F
LEWISETTA VA     2000   74 74  100/  4/  5 1005.5F
RAPPAHANNOCK LGT 2000           10/  6/  6 1006.5F
STINGRAY PT      2000   75      70/  4/  4   N/A
YORK RVR RNG VA  2000   76     110/  3/  4 1005.6F
YORKTOWN VA      2000   78 76  310/  2/  4 1005.6F
JAMESTOWN VA     2000   78     310/  4/  6   N/A
DOMINION TERM VA 2000   77     320/  5/  6 1006.5S
KIPTOPEKE VA     2000      79  340/  7/  9   N/A
CHES BAY BRIDGE  2000   74 75  280/  4/  5 1006.1R
CAPE HENRY VA    2000   74     320/  8/  9 1005.3S
CHESAPEAKE LGHT  1900   74     320/ 17/ 19 1006.9F
WILLOUBY STN VA  2000   77     250/  6/  7 1005.1S
S CRANEY ISL VA  2000          260/  5/  7 1006.2F
CAPE HENRY BUOY  2000      75                N/A     5/ 8
1ST LANDING BUOY 2000   75     330/  6/  8 1006.3S
CAPE CHARLES BUO 2000      74                N/A     4/ 7   3/ 7
OFFSHORE WE BUOY 2000      74                N/A     5/ 8   3/ 8
64NM E OF VA BCH 2000   73 76  320/ 19/ 23 1004.6R   7/ 9   5/ 9
DUCK PIER NC     2000   76 74  320/  9/ 12 1006.1S
44100 DUCK FRF   2000      74                N/A     6/ 9   2/11
44056 DUCK FRF   2000                        N/A     5/ 9   2/11
OREGON INLET NC  2000   76 74  290/ 10/ 15 1007.1R
DIAMOND SHLS NC  1900   77     310/ 17/ 21 1007.0    7/ 8   5/ 8
CAPE LOOKOUT NC  1900   78     300/ 11/ 13 1008.9S
$$



USA.gov is the U.S. government's official web portal to all federal, state and local government web resources and services.